RBSP B (38753 NORAD) Tracking and Keplerian Element Data

This shows tracking and keplerian element data for the satellite.

Feedback or suggestion? Click here.




ElementValue
Catalog38753
NameRBSP B
Epoch Orbit6113
Epoch Day352.11953563
Epoch Year2018
RAAN312.7471
Inclination10.0653
Eccentricity0.68265
Argument of Perigee242.9898
Mean Anonmoly33.9672
Mean Motion2.65133751
Decay Rate-8.5E-07
L11 38753U 12046B 18352.11953563 -.00000085 00000-0 -10707-2 0 9993
L22 38753 10.0653 312.7471 6826500 242.9898 33.9672 2.65133751 61131

Live tracking and technical data element details for RBSP B (NORAD 38753). RBSP B can be tracked NOW for your location showing map with azimuth and elevation plus other details from your city location.

Track the satellite on the map from your city or location and see movement details for azimuth, elevation, latitude, longitude, range, height, and movement on the map or in text.







IsCatalogInMostPopularTable: catalog: 38753, numindb: 74
Update: records affected: 1



GetName: 38753 RBSP B

Hit Count: updated at: Wed, 19 Dec 2018 15:24:34 GMT